Вернуться в каталог

STARLINK-35485

АктивенСвязьVLEO
NORAD 66251·PAYLOAD·🇺🇸 United States

Запущен Oct 29, 2025 с Cape Canaveral Space Force Station

Loading…

Ближайшие Пролёты (ближайшие 24 часа)

TLE

СвежийSource: CelesTrak SupGP

Эпоха: Sep 14, 2026, 15:50 UTC

1 66251C 25245T   26257.66020833  .00012520  00000+0  40256-3 0  2574
2 66251  53.1581 124.5632 0001369  96.2760 170.0082 15.31700496    12

Отслеживайте STARLINK-35485 в реальном времени с AllMySat

Download on the App Store